Regional Weather Roundup
Issued by NWS Wakefield, VA

Home | Current Version | Previous Version | Text Only | Print | Product List | Glossary Off
Versions: 1 2 3 4 5 6 7 8 9 10 11 12 13 14 15 16 17 18 19 20 21 22 23 24 25 26 27 28
000 ASUS41 KAKQ 181115 RWRAKQ REGIONAL WEATHER ROUNDUP NATIONAL WEATHER SERVICE WAKEFIELD VA 600 AM EST WED JAN 18 2017 Note: "fair" indicates few or no clouds below 12,000 feet with no significant weather and/or obstructions to visibility. * = Denotes station may not report precipitation (e.g., rain,snow,etc.), thunder or fog. VAZ042-051-052>054-056-181200- NORTHERN VIRGINIA CITY SKY/WX TMP DP RH WIND PRES REMARKS WASH NATIONAL CLOUDY 47 47 100 CALM 29.91R FOG DULLES CLOUDY 44 43 96 CALM 29.91S FOG FORT BELVOIR CLOUDY 50 48 93 N3 29.91R QUANTICO FOG 47 47 100 NE6 29.91S VSB 1 FREDERICKSBRG* CLOUDY 55 55 100 N6 29.90R STAFFORD* CLOUDY 52 52 100 NW3 29.94R FOG WARRENTON CLOUDY 50 47 89 NE3 29.90R FOG CULPEPER* CLOUDY 48 48 100 E3 29.91R FOG MANASSAS* NOT AVBL LEESBURG* CLOUDY 45 45 100 N7 29.93R FOG WINCHESTER FOG 37 37 100 NW5 29.91F VSB 1 FRONT ROYAL* CLOUDY 39 39 100 CALM 29.91S VSB<1/4 LURAY* FAIR 41 41 100 NE8 29.91R $$ VAZ048-049-060>072-079>083-181200- CENTRAL AND SOUTH CENTRAL VIRGINIA CITY SKY/WX TMP DP RH WIND PRES REMARKS RICHMOND CLOUDY 55 55 100 CALM 29.88R FOG CHESTERFIELD* CLOUDY 57 43 58 W3 29.90R PETERSBURG* LGT RAIN 59 55 88 SW6 29.89S HANOVER FOG 54 52 93 CALM 29.90R VSB 1/4 TAPPAHANNOCK* CLOUDY 57 57 100 SW6 29.88R QUINTON* PTSUNNY 56 56 100 MISG 29.88R CHARLOTTSVILLE MOCLDY 55 46 71 SE3 29.88R GORDONSVILLE* FOG 48 48 100 CALM 29.89R VSB<1/4 ORANGE* FOG 45 45 100 NW3 29.91R VSB 1/4 LOUISA* CLOUDY 57 57 100 SW3 29.88R FOG BUMPASS* FAIR 54 54 100 SW5 29.88R FARMVILLE* MOCLDY 56 55 99 CALM 29.89R CREWE* CLOUDY 59 59 100 CALM 29.89S FORT PICKETT* CLOUDY 58 55 88 SW6 29.90R CHASE CITY* CLOUDY 57 56 94 CALM 29.90F CLARKSVILLE* CLOUDY 59 59 100 SW7 29.90F SOUTH HILL* CLOUDY 58 57 97 S8 29.95F LAWRENCEVILLE* CLOUDY 58 56 92 SW5 29.90S EMPORIA* CLOUDY 57 55 94 SE5 29.92S $$ VAZ088>098-181200- SOUTHEAST VIRGINIA CITY SKY/WX TMP DP RH WIND PRES REMARKS NORFOLK CLOUDY 61 55 81 SW9 29.86F VIRGINIA BEACH CLOUDY 59 54 83 SW9 29.87F NORFOLK NAVAL CLOUDY 60 55 83 SW8 29.88F WEST POINT* CLOUDY 56 55 97 CALM 29.90R SALUDA* PTSUNNY 58 57 97 SW3 29.87S NEWPORT NEWS NOT AVBL LANGLEY AFB CLOUDY 59 57 93 W10 29.88S FORT EUSTIS CLOUDY 57 55 91 CALM 29.87S WILLIAMSBURG* CLOUDY 61 57 88 W7 29.90R HR EXEC AP* CLOUDY 59 55 88 SW8 29.87F FRANKLIN* CLOUDY 60 55 85 SW6 29.91S US460-WAKEFLD CLOUDY 59 57 93 SW3 29.89F $$ VAZ020-022-025-037-045-181200- WEST CENTRAL AND SOUTHWEST VIRGINIA CITY SKY/WX TMP DP RH WIND PRES REMARKS STAUNTON* CLOUDY 52 43 71 CALM 29.93R WAYNESBORO* FAIR 53 42 66 CALM 29.90R HOT SPRINGS VA CLOUDY 45 39 81 W23G33 29.91S LYNCHBURG PTCLDY 56 46 69 W9 29.93R DANVILLE MOCLDY 55 55 100 SW6 29.92S SOUTH BOSTON* FAIR 57 56 95 SW5 29.92R MARTINSVILLE FOG 50 49 98 CALM 29.96R VSB 1/2 ROANOKE MOCLDY 56 43 61 W9 29.98R BLACKSBURG CLOUDY 52 45 76 W12 30.01R DUBLIN* CLOUDY 53 44 71 W17G29 30.00R MARION* MOCLDY 52 46 79 W17G26 30.02R HILLSVILLE* CLOUDY 52 47 82 W12G18 29.98R RICHLANDS* CLOUDY N/A N/A N/A W8G17 30.05R WISE* MOCLDY 46 41 81 W12 30.07S ABINGDON* MOCLDY 53 48 82 W6 30.06R $$ MDZ021>025-VAZ099-100-181200- SOUTHERN MARYLAND AND THE DELMARVA PENINSULA CITY SKY/WX TMP DP RH WIND PRES REMARKS PATUXENT RIVER CLOUDY 47 47 100 NW8 29.90R FOG BAY BRIDGE APT FOG 41 41 100 N6 29.90S VSB 1/4 LEONARDTOWN CLOUDY 46 45 93 CALM 29.91R DOVER FOG 44 44 100 NW12 29.83S VSB 3/4 GEORGETOWN CLOUDY 52 50 93 N7 29.88R FOG EASTON FOG 48 48 100 N3 29.93R VSB 1/2 CAMBRIDGE CLOUDY 46 46 100 NW6 29.89R SALISBURY CLOUDY 52 51 97 CALM 29.87R FOG OCEAN CITY CLOUDY 48 48 100 CALM 29.87S FOG WALLOPS ISLAND CLOUDY 54 54 100 NW8 29.87R ACCOMACK* CLOUDY 59 56 90 W8 29.86S $$ NCZ012>017-030>032-181200- NORTH CENTRAL AND EASTERN NORTH CAROLINA CITY SKY/WX TMP DP RH WIND PRES REMARKS ROANOKE RAPIDS CLOUDY 55 55 100 SW3 29.94S RALEIGH CLOUDY 63 56 78 W5 29.96R ELIZABETH CITY CLOUDY 59 56 89 SW7 29.92S AHOSKIE* N/A 56 55 95 CALM 29.94R EDENTON* CLOUDY 62 56 82 CALM 29.93F CURRITUCK* RAIN 59 59 99 SW7 29.92F KILL DEVIL HLS NOT AVBL MANTEO DRIZZLE 55 55 98 W8 29.93S CAPE HATTERAS LGT RAIN 62 57 83 W14G22 29.96S TARBORO* NOT AVBL GOLDSBORO CLOUDY 62 61 95 SW10 29.93S WASHINGTON CLOUDY 61 56 84 SW10 29.94S GREENVILLE MOCLDY 63 59 88 SW8 29.95S NEW BERN CLOUDY 63 56 78 SW9 29.97F WILMINGTON MOCLDY 63 58 83 SW13G23 30.02R $$ VAZ048-181200- ELSEWHERE CITY SKY/WX TMP DP RH WIND PRES REMARKS HARRISBURG PA FOG 38 38 100 NW3 29.92R VSB 1/8 BALTIMORE FOG 43 43 100 CALM 29.90R VSB 1/8 ANNAPOLIS FOG 45 44 97 CALM 29.90R VSB 1/4 ANDREWS AFB FOG 46 46 100 N5 29.89S VSB 1/4 PHILADELPHIA CLOUDY 42 40 92 N7 29.90S HENDERSON NC CLOUDY 56 54 91 S6 29.92F GREENSBORO CLOUDY 59 56 89 SW10 29.94R ROCKY MOUNT CLOUDY 63 57 81 W7 29.95R $$ VAZ100-181200- MARINE STATION/POSITION TIME TEMP WIND PRES WAVE SWELL AIR SEA DIR/SP/G HT/PER HT/PER (UTC) (F) (DEG/KT/KT) (MB) (FT/S) (FT/S) CAPE MAY NJ 1042 45 40 CALM / 1 1011.1S LEWES DE 1042 42 41 320/ 6/ 6 1011.6R OCEAN-CITY-INLET 1042 46 42 220/ 3/ 3 1011.4F WACHAPREAGUE VA 1048 59 49 260/ 9/ 13 1011.0R THOMAS POINT MD 1100 43 38 340/ 6/ 6 N/A GOOSES REEF MD 1100 41 350/ 10/ 14 1013.1 1 COVE POINT MD 1048 42 340/ 9/ 13 1012.8R SOLOMONS ISLAND 1036 47 41 340/ 5/ 7 N/A BISHOPS HEAD MD 1042 49 42 360/ 5/ 7 1011.9R PINEY POINT MD 1048 20/ 8/ 8 N/A POTOMAC MD 1050 45 50/ 8/ 10 1010.7R CAMBRIDGE MD 1042 48 39 320/ 6/ 7 1011.3R LEWISETTA VA 1048 57 44 310/ 5/ 6 1011.2R RAPPAHANNOCK LGT 1048 230/ 9/ 9 1012.0R STINGRAY PT 1050 50 270/ 4/ 8 1011.7R YORK RVR RNG VA 1048 52 270/ 14/ 15 1010.7S YORKTOWN VA 1036 59 42 240/ 11/ 15 1011.2R JAMESTOWN VA 1050 54 320/ 4/ 8 N/A DOMINION TERM VA 1048 52 220/ 8/ 9 1011.5F KIPTOPEKE VA 1036 43 240/ 10/ 13 N/A CHES BAY BRIDGE 1036 58 43 240/ 14/ 16 1011.5F CAPE HENRY VA 1036 61 240/ 12/ 17 N/A WILLOUBY STN VA 1048 58 220/ 16/ 17 1011.9F S CRANEY ISL VA 1048 60 230/ 7/ 9 1011.5F CAPE HENRY BUOY 1042 45 N/A 2/10 OFFSHORE WE BUOY 1051 49 N/A 2/ 4 64NM E OF VA BCH 1050 57 57 240/ 16/ 17 1011.9F 4/ 5 2/ 8 DUCK PIER NC 1036 57 45 250/ 14/ 17 1012.6R 44100 DUCK FRF 1035 46 N/A 2/10 44056 DUCK FRF 1030 45 N/A 2/10 OREGON INLET NC 1036 52 51 200/ 12/ 13 1013.5R HATTERAS NC 1036 62 53 230/ 14/ 19 1014.1F DIAMOND SHLS NC 1050 70 72 240/ 27/ 33 1013.9F 8/ 6 2/10 CAPE LOOKOUT NC 1000 62 230/ 13/ 17 1015.5F $$

USA.gov is the U.S. government's official web portal to all federal, state and local government web resources and services.